Location: Unspecified
(0.0000°N, 0.0000°E)
Time: 11:27:54
(UTC+00:00)

Vanguard 2 Rocket - Pass Details

Date: 27 November 2019
Orbit: 554 x 3326 km, 32.9° (Epoch: 08 December)

Event Time Altitude Azimuth Distance (km) Brightness Sun altitude
Rises 12:42:48 0° 230° (SW) 7,001 11.8 64.9°
Reaches altitude 10° 12:50:05 10° 214° (SW) 6,219 11.7 63.9°
Maximum altitude 13:02:46 19° 175° (S) 5,452 11.5 62.0°
Drops below altitude 10° 13:14:31 10° 135° (SE) 5,753 11.1 60.0°
Sets 13:20:44 0° 118° (ESE) 6,341 11.1 59.0°
